Regional Weather Roundup
Issued by NWS Memphis, TN

Home | Current Version | Previous Version | Text Only | Print | Product List | Glossary On
Versions: 1 2 3 4 5 6 7 8 9 10 11 12 13 14 15 16 17 18 19 20 21 22 23 24 25 26 27 28 29 30 31 32 33 34 35 36 37 38 39 40 41 42 43 44 45 46 47 48 49 50
000
ASUS44 KMEG 241310
RWRMEG
MEMPHIS CWA HOURLY WEATHER ROUNDUP
NATIONAL WEATHER SERVICE MEMPHIS TN
700 AM CST TUE JAN 24 2017

...WEST TENNESSEE...

CITY           SKY/WX    TMP DP  RH WIND       PRES   REMARKS
MEMPHIS INTL   CLEAR     36  34  92 E6        29.91S WCI  31
NWS MEMPHIS      N/A     33 N/A N/A MISG        N/A
JACKSON        CLEAR     30  28  92 CALM      29.93R
BOLIVAR        CLEAR     28  28 100 CALM      29.93R
DYERSBURG      CLEAR     30  28  93 CALM      29.92S
UNION CITY     CLEAR    N/A N/A N/A CALM      29.91S
PARIS          PTCLDY    34  30  86 CALM      29.92S
HUNTINGDON     CLEAR     32  32 100 CALM      29.92R FOG


...EASTERN ARKANSAS...

CITY           SKY/WX    TMP DP  RH WIND       PRES   REMARKS
JONESBORO      CLEAR     35  34  96 E5        29.91R WCI  31
WEST MEMPHIS   CLEAR     35  35 100 SE6       29.91R WCI  30
BATESVILLE     CLEAR     30  28  93 CALM      29.89R
NEWPORT        CLEAR     37  36  96 E7        29.90S WCI  32
WALNUT RIDGE   CLEAR     34  30  86 NE5       29.90S WCI  30
BLYTHEVILLE    MOCLDY    32  31  96 SE5       29.93R FOG     WCI  27
SEARCY         CLEAR     34  34 100 CALM      29.89F
STUTTGART      CLEAR     41  34  75 SE7       29.89S
PINE BLUFF     CLEAR     39  39 100 E5        29.88R
MONTICELLO     PTCLDY    39  37  92 SE5       29.88S


...NORTH MISSISSIPPI...

CITY           SKY/WX    TMP DP  RH WIND       PRES   REMARKS
TUPELO         CLEAR     35  32  88 CALM      29.94R
OXFORD         CLEAR     30  28  93 CALM      29.95S
BATESVILLE     MOCLDY    31  31 100 CALM      29.93F FOG
OLIVE BRANCH   PTCLDY   N/A N/A N/A CALM      29.91
TUNICA         CLEAR     34  34 100 E5        29.93S FOG     WCI  30
CLARKSDALE     CLEAR     37  37 100 CALM      29.92R
CORINTH        FOG       32  32 100 CALM      29.93R VSB 1/4
GREENWOOD      CLEAR     34  31  88 CALM      29.93R
COLUMBUS       CLEAR     37  37 100 CALM      29.94R
STARKVILLE     CLEAR     32  32 100 CALM      29.95S FOG
GOLDEN TRIANGL CLEAR     36  30  80 CALM      29.90R FOG


...SOUTHEAST MISSOURI...

CITY           SKY/WX    TMP DP  RH WIND       PRES   REMARKS
KENNETT        CLEAR     34  34 100 CALM      29.91S FOG
WEST PLAINS    CLEAR     33  31  92 SE7       29.85S WCI  27
POPLAR BLUFF   CLEAR     29  28  96 CALM      29.92R


...NORTHWEST ALABAMA...

CITY           SKY/WX    TMP DP  RH WIND       PRES   REMARKS
MUSCLE SHOALS  CLEAR     35  31  85 CALM      29.94R


...MIDDLE TENNESSEE...

CITY           SKY/WX    TMP DP  RH WIND       PRES   REMARKS
NASHVILLE      CLOUDY    42  33  70 N8        29.93R
CLARKSVILLE    CLOUDY    40  32  73 NW8       29.94R WCI  34
COLUMBIA       CLOUDY    39  39 100 CALM      29.90R


...WESTERN KENTUCKY...

CITY           SKY/WX    TMP DP  RH WIND       PRES   REMARKS
PADUCAH        CLOUDY    40  32  73 NE5       29.92R
FORT CAMPBELL  CLOUDY    40  33  78 NW5       29.93R


...CENTRAL ARKANSAS...

CITY           SKY/WX    TMP DP  RH WIND       PRES   REMARKS
LITTLE ROCK    PTCLDY    34  34 100 CALM      29.87R


SKY/WX REPORTED AS FAIR MEANS FEW OR NO CLOUDS BELOW
12 THOUSAND FEET.




USA.gov is the U.S. government's official web portal to all federal, state and local government web resources and services.